Starlink 30866

operational
NORAD ID: 58237 Int'l Des: 2023-171 Owner: SPXS Country: US Constellation: starlink
LEOCIRCULAR

Über Starlink 30866

Beschreibung wird geladen...

Live-Position

3D-Globus wird geladen...

Nächste Überflüge

Höhenverlauf

Altitude vs Time

uPlot chart will show altitude changes over time

Zweizeiliger Elementsatz

1 58237U 23171H 25352.09987504 -.00003374 00000-0 -23467-3 0 9992
2 58237 43.0032 9.2090 0001099 279.4279 80.6439 15.02556021117453
Epoch: 18. Dez. 2025 • Age: 15 hours

Aktueller Status

Höhe 562.3 km
Geschwindigkeit 7.59 km/s
Subsatellitenpunkt 40.76°N, 88.95°E
Startdatum 8. Nov. 2023
Alter 2.1 years
Typ internet

Technische Details

Klassifizierung Payload
Masse 730.00 kg
Trockenmasse 700.00 kg
Gesamtmasse 730.00 kg
Länge 0.30 m
Durchmesser 4.10 m
Spannweite 29.00 m
Form Box + pan
Hersteller SPXS
Bus-Typ Starlink V2M
Phasenstatus In Orbit
Besitzer/Staat SPXS/US

Große Konstellationen

Loading constellations...